Flag for U.S.A. Weather past 2 weeks in Wheaton, Illinois, U.S.A.

Now
41 °F

Light rain. Fog.


Feels Like: 34 °F
Forecast: 38 / 45 °F
Wind: 13 mph from Southeast

Location: Dupage Airport

Current Time: Dec 22, 2014 at 8:05:13 PM

Latest Report: Dec 22, 2014 at 6:52 PM


Visibility: 4 mi

Pressure: 29.65 "Hg

Humidity: 93%

Dew point: 39 °F

Location of WheatonLocation

Historic Weather in Wheaton — Graph

°F

Wheaton temperature yesterday

Maximum temperature yesterday: 37 °F (at 1:52 PM)
Minimum temperature yesterday: 32 °F (at 12:52 AM)
Average temperature yesterday: 34 °F

Past Weeks' High & Low Weather Summary

 TemperatureHumidityPressure
High47 °F (Dec 14, 11:52 AM)100% (Dec 14, 9:52 AM)30.42 "Hg (Dec 14, 9:52 AM)
Low21 °F (Dec 18, 6:52 AM)64% (Dec 18, 12:52 PM)29.64 "Hg (Dec 16, 12:52 AM)
Average34 °F83%30.16 "Hg
* Reported Dec 7 6:52 PM — Dec 22 6:52 PM, Wheaton, Weather by CustomWeather, © 2014

Note: Actual official high and low records may vary slightly from our data, if they occured in-between our weather recording intervals... More about our weather records

Advertising

Wheaton weather history for previous 24 hours

 ConditionsComfort  
Time TempWeatherWind HumidityBarometerVisibility
6:52 PM
Dec 22
41 °FLight rain. Fog.13 mph93%29.65 "Hg4 mi
5:52 PM41 °FLight rain. Fog.10 mph93%29.65 "Hg5 mi
4:52 PM39 °FLight rain. Fog.10 mph93%29.67 "Hg4 mi
3:59 PM38 °FLight rain. Fog.10 mph93%29.67 "Hg2 mi
2:52 PM37 °FLight rain. Fog.12 mph93%29.70 "Hg1 mi
1:52 PM36 °FLight rain. Fog.8 mph89%29.72 "Hg2 mi
12:52 PM36 °FLight rain. Fog.8 mph89%29.75 "Hg3 mi
11:52 AM35 °FLight rain. More clouds than sun.9 mph82%29.80 "Hg4 mi
10:52 AM35 °FLight rain. Mostly cloudy.9 mph78%29.86 "Hg5 mi
9:52 AM35 °FOvercast.8 mph72%29.88 "Hg6 mi
8:52 AM33 °FOvercast.8 mph78%29.89 "Hg5 mi
7:52 AM33 °FOvercast.9 mph78%29.90 "Hg5 mi
6:52 AM32 °FMostly cloudy.8 mph82%29.93 "Hg6 mi
5:52 AM33 °FMostly cloudy.7 mph78%29.94 "Hg7 mi
4:52 AM32 °FOvercast.10 mph82%29.95 "Hg7 mi
3:52 AM31 °FIce fog.7 mph85%29.96 "Hg6 mi
2:52 AM32 °FOvercast.8 mph82%29.98 "Hg6 mi
1:52 AM32 °FPassing clouds.12 mph82%29.99 "Hg6 mi
12:52 AM32 °FClear.9 mph82%29.99 "Hg6 mi
11:52 PM
Dec 21
32 °FHaze.10 mph82%30.01 "Hg6 mi
10:52 PM33 °FPassing clouds.13 mph82%30.03 "Hg7 mi
9:52 PM33 °FPassing clouds.10 mph82%30.04 "Hg7 mi
8:52 PM34 °FClear.8 mph82%30.05 "Hg8 mi
Weather by CustomWeather, © 2014

See weather overviewHow to use our weather pages